Location: Mentone
(34.5413°N, 85.5351°W)
Time: 10:09:20
(UTC-05:00)

Amateur Radio Satellites - All Passes

Search period start: 30 October 2014 09:39
Search period end: 31 October 2014 09:39
Location: Mentone, 34.5413°N, 85.5351°W

Satellite Date Start Highest point End Downlink Frequencies (MHz)
Time Altitude Azimuth
UKube-1 30 Oct 10:11:44 10:16:03 57° 101° (E) 10:20:19 145.840 MHz, 145.915 MHz
ZACube-1 30 Oct 10:18:47 10:22:15 25° 96° (E) 10:25:40 437.345 MHz
ISS 30 Oct 10:26:54 10:30:08 53° 320° (NW) 10:33:24 145.800 FM
HO-68 30 Oct 10:42:38 10:49:14 41° 293° (WNW) 10:55:48 435.675 MHz FM
Sapphire 30 Oct 10:43:55 10:47:06 16° 49° (NE) 10:50:17 437.095 MHz 1200 baud AX-25 AFSK
SO-50 30 Oct 10:44:12 10:48:22 41° 114° (ESE) 10:52:39 436.795 FM
Oscar 11 30 Oct 10:47:57 10:52:08 51° 285° (WNW) 10:56:18 145.825 FM, Beacon 2401.500 USB
FUNcube-1 30 Oct 11:01:24 11:05:36 88° 101° (E) 11:09:44 145.950 - 145.970 MHz USB
PCSat 30 Oct 11:04:51 11:09:17 25° 54° (NE) 11:13:40 145.825 MHz
KITSAT 1 30 Oct 11:18:18 11:26:22 74° 298° (WNW) 11:34:28 435.175 FM
UOSAT-12 30 Oct 11:37:32 11:39:12 12° 107° (ESE) 11:40:51 437.025 FM, 437.400 FM
UKube-1 30 Oct 11:50:32 11:51:41 11° 295° (WNW) 11:52:50 145.840 MHz, 145.915 MHz
ZACube-1 30 Oct 11:55:21 11:58:29 21° 290° (WNW) 12:01:35 437.345 MHz
Oscar 19 30 Oct 12:14:42 12:17:23 14° 64° (ENE) 12:20:04 437.125 CW, 437.150 USB
Sapphire 30 Oct 12:25:38 12:31:03 71° 247° (WSW) 12:36:25 437.095 MHz 1200 baud AX-25 AFSK
SO-50 30 Oct 12:25:49 12:29:04 19° 310° (NW) 12:32:24 436.795 FM
PCSat 30 Oct 12:47:45 12:52:47 40° 250° (WSW) 12:57:46 145.825 MHz
AO-27 30 Oct 12:48:42 12:50:47 12° 63° (ENE) 12:52:53 436.795 MHz FM
Oscar 16 30 Oct 12:59:03 13:03:52 42° 72° (ENE) 13:08:41 437.025 USB, Beacon 2401.1428
JAS-1B 30 Oct 13:12:54 13:18:32 50° 72° (ENE) 13:24:00 435.800 - 435.900 CW/SSB
UOSAT-12 30 Oct 13:14:11 13:18:44 61° 301° (WNW) 13:23:24 437.025 FM, 437.400 FM
KITSAT 1 30 Oct 13:18:24 13:23:11 17° 319° (NW) 13:28:00 435.175 FM
Uribyol 2 30 Oct 13:30:04 13:34:44 34° 70° (ENE) 13:39:26 436.500 FM
ITAMSAT 1 30 Oct 13:37:36 13:42:23 38° 71° (ENE) 13:47:11 435.822 SSB
AO-Echo 30 Oct 13:43:05 13:47:53 56° 74° (ENE) 13:52:53 ?
Oscar 19 30 Oct 13:51:07 13:56:11 59° 259° (W) 14:01:16 437.125 CW, 437.150 USB
Saudisat 1A 30 Oct 14:01:49 14:04:30 16° 49° (NE) 14:07:11 436.775 MHz
AO-7 30 Oct 14:08:00 14:11:39 14° 52° (NE) 14:15:17 29.400 - 29.500 MHz
AO-27 30 Oct 14:24:27 14:29:38 71° 258° (WSW) 14:34:52 436.795 MHz FM
Gurwin Techsat 1B 30 Oct 14:33:40 14:38:56 71° 75° (ENE) 14:44:14 435.225 FM
Oscar 16 30 Oct 14:39:43 14:43:20 19° 266° (W) 14:46:57 437.025 USB, Beacon 2401.1428
TMSAT-1 30 Oct 14:40:50 14:46:02 60° 74° (ENE) 14:51:15 436.925 FM
JAS-1B 30 Oct 15:06:04 15:09:31 16° 266° (W) 15:12:54 435.800 - 435.900 CW/SSB
Uribyol 2 30 Oct 15:10:03 15:14:12 24° 264° (W) 15:18:23 436.500 FM
ITAMSAT 1 30 Oct 15:18:00 15:21:56 22° 265° (W) 15:25:53 435.822 SSB
AO-Echo 30 Oct 15:24:39 15:27:00 13° 269° (W) 15:29:24 ?
Uosat F 30 Oct 15:34:26 15:38:33 26° 68° (ENE) 15:42:41 435.120 FM
Saudisat 1A 30 Oct 15:40:03 15:44:21 51° 245° (WSW) 15:48:36 436.775 MHz
AO-7 30 Oct 15:54:47 16:02:59 73° 70° (ENE) 16:11:14 29.400 - 29.500 MHz
Gurwin Techsat 1B 30 Oct 16:17:45 16:19:20 11° 269° (W) 16:20:54 435.225 FM
TMSAT-1 30 Oct 16:23:42 16:26:17 14° 268° (W) 16:28:52 436.925 FM
JAS-2 30 Oct 16:46:08 16:51:45 39° 68° (ENE) 16:58:04 435.800 - 435.900 CW/SSB, 435.910 FM
ISS 30 Oct 16:58:27 17:01:31 33° 37° (NE) 17:04:35 145.800 FM
Uosat F 30 Oct 17:12:48 17:17:10 30° 263° (W) 17:21:35 435.120 FM
Hamsat 30 Oct 17:25:17 17:29:16 44° 74° (ENE) 17:33:15 145.90 MHz
OPAL 30 Oct 17:41:14 17:45:58 45° 102° (ESE) 17:50:42 ?
AO-7 30 Oct 17:50:40 17:56:21 20° 266° (W) 18:02:03 29.400 - 29.500 MHz
AO-40 30 Oct 18:00:48 00:29:54 52° 183° (S) 04:06:53 Beacon 2401.320
JAS-2 30 Oct 18:31:38 18:36:52 30° 267° (W) 18:42:41 435.800 - 435.900 CW/SSB, 435.910 FM
ISS 30 Oct 18:35:36 18:38:02 19° 231° (SW) 18:40:27 145.800 FM
SO-67 30 Oct 18:54:37 18:57:59 57° 77° (ENE) 19:01:22 435.3500 MHz FM
Hamsat 30 Oct 19:03:54 19:05:24 12° 268° (W) 19:06:53 145.90 MHz
RS-15 30 Oct 19:15:36 19:22:40 20° 101° (E) 19:29:38 29.354 - 29.394 USB, Beacon 29.352 USB
KITSAT 1 30 Oct 19:16:00 19:22:59 31° 50° (NE) 19:29:54 435.175 FM
SO-50 30 Oct 19:19:38 19:22:57 18° 49° (NE) 19:26:15 436.795 FM
OPAL 30 Oct 19:21:15 19:24:28 18° 296° (WNW) 19:27:42 ?
HO-68 30 Oct 19:22:00 19:26:31 18° 59° (ENE) 19:31:02 435.675 MHz FM
STRAND 1 30 Oct 19:35:55 19:41:05 86° 103° (ESE) 19:46:13 ?
Oscar 10/S400 30 Oct 20:38:12 21:20:09 59° 205° (SSW) 07:24:21 145.825 - 145.975 CW/USB, Beacon 145.810 USB
SO-50 30 Oct 20:59:03 21:03:48 53° 245° (WSW) 21:08:32 436.795 FM
UKube-1 30 Oct 21:03:55 21:07:45 32° 71° (ENE) 21:11:37 145.840 MHz, 145.915 MHz
HO-68 30 Oct 21:06:13 21:13:23 77° 256° (WSW) 21:20:35 435.675 MHz FM
KITSAT 1 30 Oct 21:10:52 21:18:42 56° 249° (WSW) 21:26:30 435.175 FM
ZACube-1 30 Oct 21:12:41 21:15:22 16° 68° (ENE) 21:18:02 437.345 MHz
RS-15 30 Oct 21:22:29 21:33:34 86° 298° (WNW) 21:44:32 29.354 - 29.394 USB, Beacon 29.352 USB
MaSat-1 30 Oct 21:27:51 21:31:24 30° 109° (ESE) 21:34:40 437.345 MHz
Oscar 11 30 Oct 21:39:04 21:43:22 77° 77° (ENE) 21:47:41 145.825 FM, Beacon 2401.500 USB
UOSAT-12 30 Oct 21:47:14 21:51:43 43° 56° (ENE) 21:56:07 437.025 FM, 437.400 FM
FUNcube-1 30 Oct 21:53:52 21:58:12 45° 74° (ENE) 22:02:28 145.950 - 145.970 MHz USB
UKube-1 30 Oct 22:40:56 22:43:57 18° 265° (W) 22:46:59 145.840 MHz, 145.915 MHz
ZACube-1 30 Oct 22:47:04 22:51:24 42° 261° (W) 22:55:39 437.345 MHz
MaSat-1 30 Oct 23:04:16 23:06:47 16° 299° (WNW) 23:09:09 437.345 MHz
UOSAT-12 30 Oct 23:28:27 23:31:29 17° 251° (WSW) 23:34:28 437.025 FM, 437.400 FM
FUNcube-1 30 Oct 23:32:24 23:34:42 14° 267° (W) 23:37:01 145.950 - 145.970 MHz USB
RS-15 30 Oct 23:39:20 23:47:38 24° 323° (NW) 23:56:01 29.354 - 29.394 USB, Beacon 29.352 USB
JAS-1B 31 Oct 00:59:23 01:04:55 21° 96° (E) 01:11:01 435.800 - 435.900 CW/SSB
Oscar 16 31 Oct 01:15:08 01:18:46 19° 94° (E) 01:22:24 437.025 USB, Beacon 2401.1428
Sapphire 31 Oct 01:21:43 01:26:02 25° 107° (ESE) 01:30:23 437.095 MHz 1200 baud AX-25 AFSK
PCSat 31 Oct 01:42:32 01:47:37 44° 110° (ESE) 01:52:44 145.825 MHz
Uribyol 2 31 Oct 01:47:30 01:50:38 16° 93° (E) 01:53:44 436.500 FM
AO-Echo 31 Oct 01:54:23 01:58:46 26° 95° (E) 02:03:03 ?
ITAMSAT 1 31 Oct 01:55:00 01:58:30 18° 94° (E) 02:01:59 435.822 SSB
RS-15 31 Oct 02:04:06 02:06:13 11° 359° (N) 02:08:21 29.354 - 29.394 USB, Beacon 29.352 USB
Oscar 19 31 Oct 02:06:13 02:11:18 66° 102° (ESE) 02:16:23 437.125 CW, 437.150 USB
AO-27 31 Oct 02:41:10 02:46:18 56° 101° (E) 02:51:23 436.795 MHz FM
JAS-1B 31 Oct 02:48:21 02:55:35 69° 286° (WNW) 03:04:14 435.800 - 435.900 CW/SSB
Oscar 16 31 Oct 02:53:28 02:58:14 40° 288° (WNW) 03:02:59 437.025 USB, Beacon 2401.1428
Gurwin Techsat 1B 31 Oct 02:53:46 02:58:42 38° 98° (E) 03:03:35 435.225 FM
TMSAT-1 31 Oct 03:00:39 03:05:22 32° 97° (E) 03:10:02 436.925 FM
Sapphire 31 Oct 03:04:14 03:09:13 37° 302° (WNW) 03:14:14 437.095 MHz 1200 baud AX-25 AFSK
Uribyol 2 31 Oct 03:25:19 03:30:20 50° 287° (WNW) 03:35:18 436.500 FM
PCSat 31 Oct 03:26:58 03:31:11 23° 307° (NW) 03:35:27 145.825 MHz
AO-Echo 31 Oct 03:32:45 03:37:28 33° 290° (WNW) 03:42:08 ?
ITAMSAT 1 31 Oct 03:33:12 03:38:09 45° 288° (WNW) 03:43:04 435.822 SSB
Oscar 19 31 Oct 03:47:48 03:50:02 13° 296° (WNW) 03:52:17 437.125 CW, 437.150 USB
AO-7 31 Oct 04:01:05 04:08:08 30° 97° (E) 04:15:09 29.400 - 29.500 MHz
PANSAT 31 Oct 04:10:31 04:13:37 23° 167° (SSE) 04:16:44 not established
RS-15 31 Oct 04:16:41 04:25:00 23° 36° (NE) 04:33:30 29.354 - 29.394 USB, Beacon 29.352 USB
AO-27 31 Oct 04:22:16 04:25:18 16° 296° (WNW) 04:28:18 436.795 MHz FM
Gurwin Techsat 1B 31 Oct 04:34:17 04:38:23 23° 293° (WNW) 04:42:28 435.225 FM
TMSAT-1 31 Oct 04:40:44 04:45:06 27° 292° (WNW) 04:49:28 436.925 FM
JAS-1B 31 Oct 04:43:35 04:45:15 11° 300° (WNW) 04:46:59 435.800 - 435.900 CW/SSB
OPAL 31 Oct 04:52:36 04:57:36 56° 72° (ENE) 05:02:34 ?
Hamsat 31 Oct 05:17:21 05:17:48 10° 92° (E) 05:18:16 145.90 MHz
Uosat F 31 Oct 05:23:18 05:28:20 74° 285° (WNW) 05:33:20 435.120 FM
Saudisat 1A 31 Oct 05:42:42 05:47:04 85° 299° (WNW) 05:51:29 436.775 MHz
JAS-2 31 Oct 05:43:11 05:50:51 53° 99° (E) 05:58:08 435.800 - 435.900 CW/SSB, 435.910 FM
PANSAT 31 Oct 05:49:54 05:53:22 33° 180° (S) 05:56:50 not established
AO-7 31 Oct 05:53:06 06:01:06 54° 293° (WNW) 06:09:07 29.400 - 29.500 MHz
RS-15 31 Oct 06:28:03 06:39:22 80° 61° (ENE) 06:51:09 29.354 - 29.394 USB, Beacon 29.352 USB
OPAL 31 Oct 06:34:08 06:36:44 14° 265° (W) 06:39:21 ?
STRAND 1 31 Oct 06:48:13 06:53:20 86° 77° (ENE) 06:58:31 ?
Hamsat 31 Oct 06:49:53 06:53:59 52° 285° (WNW) 06:58:07 145.90 MHz
MaSat-1 31 Oct 07:16:27 07:17:41 13° 59° (ENE) 07:18:54 437.345 MHz
JAS-2 31 Oct 07:28:49 07:35:22 30° 295° (WNW) 07:41:44 435.800 - 435.900 CW/SSB, 435.910 FM
PANSAT 31 Oct 07:30:00 07:33:07 24° 193° (SSW) 07:36:13 not established
SO-67 31 Oct 07:53:53 07:57:19 67° 283° (WNW) 08:00:43 435.3500 MHz FM
HO-68 31 Oct 08:38:52 08:44:32 25° 95° (E) 08:50:09 435.675 MHz FM
RS-15 31 Oct 08:42:22 08:50:33 24° 258° (WSW) 08:59:01 29.354 - 29.394 USB, Beacon 29.352 USB
Oscar 11 31 Oct 09:31:12 09:34:10 18° 95° (E) 09:37:07 145.825 FM, Beacon 2401.500 USB
